Regional Weather Roundup
Issued by NWS

Home | Current Version | Previous Version | Graphics & Text | Print | Product List | Glossary Off
Versions: 1 2 3 4 5 6 7 8 9 10 11 12 13 14 15 16 17 18 19 20 21 22 23 24 25 26 27 28 29 30 31 32 33 34 35 36 37 38 39 40 41 42 43 44 45 46 47 48 49 50

000
ASUS43 KTOP 240508
RWRKS

WEATHER ROUNDUP FOR KANSAS
NATIONAL WEATHER SERVICE GOODLAND KS
1200 AM CDT SAT JUN 24 2017

NOTE:  "FAIR" INDICATES FEW OR NO CLOUDS BELOW 12,000 FEET WITH NO
SIGNIFICANT WEATHER AND/OR OBSTRUCTIONS TO VISIBILITY.

KSZ001>006-013>018-027>032-041>047-240600-
NORTHWEST KANSAS

CITY           SKY/WX    TMP DP  RH WIND       PRES   REMARKS
GOODLAND       CLEAR     57  51  80 SW7       30.25R
HAYS           CLEAR     64  53  67 NE8       30.18R
HILL CITY      CLEAR     60  49  66 NE3       30.20R
RUSSELL        CLEAR     64  49  57 NE7       30.16R
$$

KSZ061>065-074>080-084>089-240600-
SOUTHWEST KANSAS

CITY           SKY/WX    TMP DP  RH WIND       PRES   REMARKS
DODGE CITY     CLOUDY    66  53  63 W6        30.20R
ELKHART          N/A     62  44  51 NE2         N/A
GARDEN CITY    CLOUDY    65  51  60 NW5       30.22R
GREAT BEND     CLEAR     61  57  87 NW5       30.17R
LIBERAL        CLOUDY    67  49  52 CALM      30.24R
PRATT          CLOUDY    64  52  67 NW6       30.16R
$$

KSZ066>073-081>083-090>101-240600-
SOUTHEAST KANSAS

CITY           SKY/WX    TMP DP  RH WIND       PRES   REMARKS
CHANUTE        CLOUDY    69  54  58 N3        30.09R
COFFEYVILLE    MOCLDY    67  56  67 NE6       30.08R
HUTCHINSON     CLEAR     61  52  72 CALM      30.13R
MEDICINE LODGE   N/A     68  55  63 CALM      30.14R
NEWTON         CLEAR     68  51  54 E3        30.14R
PARSONS        CLEAR     70  51  51 N8        30.09R
WICHITA INTL   MOCLDY    68  54  60 CALM      30.11R
WICHITA JABRA  PTCLDY    69  52  54 NE5       30.12R
WICHITA MCCONL CLOUDY    71  50  46 E3        30.12R
WINFIELD       CLOUDY    72  55  55 N6        30.12R
$$

KSZ007>012-019>026-033>040-048>060-102>105-240600-
NORTHEAST KANSAS

CITY           SKY/WX    TMP DP  RH WIND       PRES   REMARKS
CONCORDIA      CLEAR     64  50  60 N5        30.15R
EMPORIA        CLEAR     64  56  75 CALM      30.11R
LAWRENCE       CLEAR     60  58  92 NW5       30.10R
MANHATTAN      CLEAR     62  52  69 CALM      30.13R
MARYSVILLE     CLEAR     59  52  77 CALM      30.14R
OLATHE IND     CLEAR     61  55  81 N6        30.10R
OLATHE EXE     CLEAR     67  54  63 N6        30.09R
SALINA         CLEAR     69  51  52 N3        30.14R
TOPEKA BILLARD CLEAR     64  61  90 NW3       30.10R
TOPEKA FORBES  CLEAR     63  57  81 N3        30.11R
$$




USA.gov is the U.S. government's official web portal to all federal, state and local government web resources and services.